SCP
0 0 0 0 0 0 0 0 0 0 0 0 0 0 0 0 0 0 0 0 0 0 0 0 1 1 1 1 1 1 1 1 1 1 0 0 0 0 0 0 0 0 0 0 0 0 0 0 0
0 0 0 0 0 0 0 0 0 0 0 0 0 0 0 0 0 0 0 0 0 0 0 0 1 1 1 1 1 1 1 1 1 0 0 0 0 0 0 0 0 0 0 0 0 0 0 0 0
0 0 0 0 0 0 0 0 0 0 0 0 0 0 0 0 0 0 0 0 0 0 0 0 1 1 1 1 1 1 1 1 1 0 0 0 0 0 0 0 0 0 0 0 0 0 0 0 0
0 0 0 0 0 0 0 0 0 0 0 0 0 0 0 0 0 0 0 0 0 0 0 0 1 1 1 1 1 1 1 1 1 0 0 0 0 0 0 0 0 0 0 0 0 0 0 0 0
0 0 0 0 0 0 0 0 0 0 0 0 0 0 0 0 0 0 0 0 0 0 0 1 1 1 1 1 1 1 1 1 1 0 0 0 0 0 0 0 0 0 0 0 0 0 0 0 0
0 0 0 0 0 0 0 0 0 0 0 0 0 0 0 0 0 0 0 0 0 0 1 1 1 1 1 1 1 1 1 1 1 1 1 0 0 0 0 0 0 0 0 0 0 0 0 0 0
0 0 0 0 0 0 0 0 0 0 0 0 0 0 0 0 0 0 0 0 0 0 1 1 1 1 1 1 1 1 1 1 1 1 1 1 0 0 0 0 0 0 0 0 0 0 0 0 0
0 0 0 0 0 0 0 0 0 0 0 0 0 0 0 0 0 0 0 0 0 0 1 1 1 1 1 1 1 1 2 2 2 2 2 1 1 1 0 0 0 0 0 0 0 0 0 0 0
0 0 0 0 0 0 0 0 0 0 0 0 0 0 0 0 0 0 0 0 0 0 0 1 1 1 1 1 1 1 2 2 2 2 3 2 2 1 1 0 0 0 0 0 0 0 0 0 0
0 0 0 0 0 0 0 0 0 0 0 0 0 0 1 1 1 1 0 0 0 0 1 1 1 1 1 1 1 1 2 2 2 2 3 3 3 2 1 1 1 0 0 0 0 0 1 0 1
0 0 0 0 0 0 0 0 0 0 0 0 0 1 1 1 1 1 1 1 1 1 1 1 1 1 1 1 2 2 2 2 2 2 3 3 3 2 2 1 1 1 1 1 1 1 1 1 1
0 0 0 0 0 0 0 0 0 0 0 0 1 1 1 2 2 2 1 1 1 1 1 1 1 1 2 2 2 2 2 2 2 2 2 3 3 2 2 2 1 1 1 1 1 1 1 1 1
0 0 0 0 0 0 0 0 0 1 1 1 2 2 2 2 2 2 2 2 1 1 1 1 2 2 2 2 2 2 2 2 2 2 2 2 2 2 2 2 2 1 1 1 1 2 2 2 2
0 0 0 0 0 0 0 0 1 1 1 2 2 3 3 3 2 2 2 2 2 2 1 2 2 2 2 2 2 2 2 2 2 2 2 2 2 2 2 2 2 2 2 2 2 2 2 2 2
0 0 0 0 0 0 0 1 1 2 2 3 3 3 3 3 3 3 3 3 3 2 2 2 2 2 2 3 2 2 2 2 2 2 2 2 2 2 2 2 2 2 2 3 3 3 3 3 3
0 0 0 0 0 0 1 2 2 3 3 4 4 4 4 4 4 3 4 4 3 3 2 2 2 2 3 3 3 2 2 2 2 2 2 2 2 2 2 2 2 3 3 3 4 4 4 3 3
0 0 0 0 0 1 2 3 4 4 5 5 5 5 5 4 4 4 4 4 4 3 2 2 2 3 3 3 3 3 2 2 2 2 2 2 2 2 2 2 3 3 3 4 4 4 4 3 3
0 0 0 0 0 1 3 4 5 5 5 6 5 5 5 4 4 4 4 4 3 3 2 2 3 3 3 3 3 2 2 2 2 2 2 2 2 2 3 3 3 3 4 4 4 4 4 3 3
0 0 0 0 0 1 3 4 4 4 4 4 5 6 7 6 4 4 4 3 3 2 2 2 2 3 3 3 2 2 2 2 2 2 2 2 2 3 3 4 3 3 4 4 4 4 4 4 4
0 0 0 0 0 1 1 2 2 2 3 3 3 5 9 7 4 3 3 2 2 2 2 2 2 2 2 3 2 2 2 2 2 2 2 2 2 3 3 3 4 4 4 4 4 4 4 4 4
0 0 0 0 0 0 0 1 1 1 2 2 3 4 6 5 3 2 2 1 1 1 1 1 1 2 2 2 2 2 2 2 2 2 2 2 2 2 2 3 3 4 4 4 4 4 4 4 4
0 0 0 0 0 0 0 0 0 1 1 2 2 3 3 2 2 1 1 1 1 1 1 1 1 1 1 2 2 2 1 1 1 1 1 1 1 1 2 2 2 3 3 3 3 4 4 4 4
0 0 0 0 0 0 0 0 0 0 1 1 2 2 2 1 1 1 1 0 0 0 1 1 1 1 1 1 1 1 1 1 1 0 0 0 0 1 1 1 2 2 2 3 3 3 4 4 4
0 0 0 0 0 0 0 0 0 0 0 1 1 1 1 1 1 0 0 0 0 0 1 1 1 1 1 1 1 1 1 1 0 0 0 0 0 0 1 1 1 2 2 2 2 3 3 4 4
0 0 0 0 0 0 0 0 0 0 0 0 0 1 1 1 0 0 0 0 0 1 1 1 2 1 1 1 1 1 1 1 0 0 0 0 0 0 0 1 1 1 1 2 2 2 2 3 3
0 0 0 0 0 0 0 0 0 0 0 0 0 0 0 0 0 0 0 0 0 1 1 1 2 2 1 1 1 1 0 0 0 0 0 0 0 0 0 0 1 1 1 1 2 2 2 2 2
0 0 0 0 0 0 0 0 0 0 0 0 0 0 0 0 0 0 0 0 0 0 1 1 1 1 1 1 1 1 0 0 0 0 0 0 1 0 0 0 0 1 1 1 1 2 2 2 2
0 0 0 0 0 0 0 0 0 0 0 0 0 0 0 0 0 0 0 0 0 0 0 0 0 1 1 1 0 0 0 0 0 0 0 0 0 0 1 1 1 1 1 1 1 1 2 3 3
0 0 0 0 0 0 0 0 0 0 0 0 0 0 0 0 0 0 0 0 0 0 0 0 0 0 0 0 0 0 0 0 0 0 0 0 0 0 0 1 1 1 1 1 1 1 1 2 3
0 0 0 0 0 0 0 0 0 0 0 0 0 0 0 0 0 0 0 0 0 0 0 0 0 0 0 0 0 0 0 0 0 0 0 0 0 0 0 0 0 0 1 1 1 1 1 2 2
Wind_Speed
5 5 3 2 2 4 3 3 1 1 2 2 3 4 6 4 3 2 2 8 13 13 11 15 18 17 16 16 15 14 14 13 13 13 12 11 11 10 9 9 8 8 7 7 7 6 6 6 6
3 4 2 2 4 4 4 3 2 0 3 3 4 4 5 3 3 6 5 7 13 13 9 12 18 17 17 16 15 14 14 13 12 12 11 10 10 9 8 8 7 7 7 6 6 6 6 6 5
4 3 2 3 3 1 3 3 0 1 3 2 3 4 4 3 6 7 6 11 12 11 9 12 19 18 17 16 15 14 14 13 12 11 11 10 9 8 8 7 7 6 6 6 6 6 6 5 5
3 2 3 4 2 3 4 3 2 3 1 3 4 5 4 2 7 7 12 14 13 9 8 11 19 18 17 16 15 15 14 13 12 11 10 10 9 8 8 8 7 7 7 6 6 6 6 6 6
3 4 5 3 4 5 4 4 4 2 1 2 4 5 2 4 7 12 15 15 14 10 8 10 18 18 17 16 16 15 14 13 12 11 10 10 9 9 9 9 9 8 8 8 8 8 8 8 8
4 4 4 2 6 6 4 2 2 2 2 3 4 4 1 2 7 12 13 12 11 11 8 8 18 18 17 16 15 14 14 13 12 11 11 10 10 10 10 10 10 10 10 10 10 9 9 9 9
4 4 1 2 4 6 4 3 2 3 3 4 5 5 1 3 5 9 9 9 9 9 7 6 8 12 16 16 15 14 13 12 12 11 11 11 11 11 11 11 11 12 12 11 11 11 11 11 10
4 4 1 2 2 5 5 4 1 3 3 3 5 7 6 6 8 8 8 7 7 7 6 6 6 6 6 8 14 14 13 13 12 12 12 12 12 12 12 11 11 13 13 13 13 13 13 12 11
3 5 1 3 2 5 4 3 3 2 5 2 2 3 5 15 14 11 8 6 6 8 6 5 5 5 5 5 9 11 12 12 12 11 13 11 6 5 6 10 13 14 14 14 14 14 14 13 12
4 3 5 4 3 4 5 3 1 3 3 1 3 5 13 17 15 13 13 12 12 11 9 6 6 5 5 6 5 4 4 5 6 4 5 4 4 4 8 8 15 16 16 16 16 16 15 12 6
3 5 4 4 4 4 4 3 1 5 3 7 8 11 16 15 13 12 11 11 11 9 9 9 8 6 6 4 3 2 2 3 4 5 5 4 3 4 5 4 7 8 11 8 9 9 7 7 6
2 5 4 5 3 2 3 2 1 4 6 4 8 15 16 16 14 13 11 9 7 7 9 8 8 7 7 5 4 3 3 4 4 5 6 5 4 5 5 5 5 5 5 6 6 5 7 8 9
2 4 4 5 6 4 3 3 3 4 2 5 11 13 14 13 10 8 7 7 7 8 9 8 8 8 8 7 5 5 5 5 5 5 6 7 6 6 6 6 6 7 6 6 6 7 8 8 8
3 5 7 7 5 3 3 2 0 2 3 8 11 11 9 10 9 8 8 8 8 9 8 7 9 9 7 7 6 5 4 5 5 6 7 8 7 7 7 7 7 7 6 7 7 8 7 6 6
3 5 7 4 3 3 1 3 2 2 5 8 9 8 8 7 7 8 9 9 9 8 8 7 8 8 8 7 7 6 5 5 5 6 7 8 8 8 8 7 7 7 6 7 6 7 5 5 5
3 4 5 7 6 4 2 2 5 4 7 7 7 7 7 5 5 5 6 6 6 6 6 6 6 7 7 7 6 5 4 5 5 5 5 8 9 9 8 8 8 7 6 6 6 5 4 4 4
5 3 3 8 6 3 3 0 5 5 7 7 6 6 7 5 4 3 4 5 5 5 5 5 4 4 5 6 5 4 4 5 5 5 5 6 8 8 8 8 8 7 7 6 7 5 4 4 5
1 2 3 5 6 6 5 3 4 5 6 6 5 5 6 6 3 3 4 5 5 4 5 4 4 3 3 3 2 3 3 4 4 4 5 6 6 7 7 7 9 7 6 7 6 7 6 5 5
1 1 2 4 3 5 5 4 4 4 4 4 4 5 6 5 3 3 4 5 5 4 4 5 4 3 2 2 1 2 3 3 3 3 4 4 4 5 5 6 6 6 7 8 8 7 7 7 4
2 1 1 3 4 3 3 3 3 3 1 1 3 4 5 4 2 1 2 3 4 4 4 4 4 3 3 2 1 1 2 2 2 2 3 4 4 5 5 5 5 5 6 7 8 7 5 5 5
1 3 2 1 3 5 3 5 4 3 3 3 2 2 3 5 5 4 4 4 4 4 5 4 4 4 3 2 0 1 1 2 2 3 3 4 5 5 5 6 5 5 5 6 7 7 8 7 6
1 2 2 1 2 3 3 2 5 3 3 1 1 3 4 5 5 5 6 5 6 6 4 4 4 3 2 1 1 1 1 2 3 2 3 5 5 6 6 6 5 5 4 6 6 7 7 7 6
2 3 3 2 2 2 4 1 7 3 2 4 5 6 7 7 7 7 7 7 6 5 4 4 4 3 2 2 2 2 2 3 3 3 4 4 4 5 6 6 5 5 5 6 6 6 7 7 7
4 5 6 5 5 2 1 0 5 3 5 4 5 7 8 7 7 7 6 5 4 4 4 4 5 4 3 3 3 3 3 4 4 5 5 4 4 4 5 6 6 6 5 6 6 7 8 7 8
6 7 6 7 6 4 3 1 7 5 4 5 6 7 6 5 5 6 6 5 5 5 5 5 6 5 5 4 4 4 4 4 4 5 4 5 4 4 5 6 6 6 6 7 6 7 7 8 9
1 7 6 3 4 5 4 3 5 4 7 5 4 4 6 6 5 6 6 5 5 5 5 5 6 6 5 5 5 4 4 3 3 4 4 4 4 5 6 7 7 8 8 7 6 6 7 6 8
4 2 5 6 2 2 5 5 7 11 15 13 11 10 9 8 8 7 7 6 5 5 5 5 5 5 5 5 5 4 4 4 5 5 4 4 4 5 6 7 7 7 7 7 6 5 6 5 6
2 7 5 5 3 3 5 3 5 11 13 13 13 12 11 11 11 11 10 10 8 7 6 5 4 4 4 4 4 4 5 5 5 4 5 5 5 5 6 7 7 7 7 6 6 5 4 3 3
2 4 5 4 4 5 4 4 1 3 6 7 8 9 9 10 11 11 10 10 10 10 10 9 8 7 6 5 5 6 6 5 5 5 5 5 5 6 6 7 7 7 7 6 4 4 3 2 2
1 3 6 2 3 4 3 5 3 3 3 5 6 8 8 8 8 9 10 11 13 13 12 11 9 8 7 6 6 7 7 6 6 6 6 5 5 5 6 6 6 6 6 5 4 3 1 1 2
Wind_Direction
162 151 150 144 68 42 3 330 281 328 13 34 103 105 117 125 176 205 101 135 135 146 157 162 161 159 157 156 155 154 153 152 151 150 150 149 149 149 150 150 150 148 145 143 143 142 140 138 135
148 154 160 94 71 36 323 311 352 331 144 113 78 84 85 88 80 112 131 140 142 146 153 159 163 161 161 161 161 161 161 160 159 158 158 158 158 160 161 162 162 162 160 159 160 161 159 157 156
164 174 106 73 74 172 277 289 227 95 155 148 97 77 100 140 141 151 155 143 141 147 152 165 165 165 166 167 167 168 168 168 168 168 169 170 172 175 177 177 180 183 183 183 183 185 184 184 186
138 70 55 58 339 244 235 253 194 152 139 85 104 84 67 78 154 153 144 146 146 149 153 170 167 169 170 171 173 174 174 175 177 178 181 184 188 193 197 199 202 205 207 209 210 210 210 211 214
72 76 51 19 298 274 253 241 193 170 134 84 102 100 64 16 110 134 145 152 152 151 156 172 171 174 175 176 178 179 180 182 185 187 192 198 203 208 214 216 218 220 223 226 227 228 229 229 231
57 61 66 341 307 301 296 265 166 138 116 105 110 107 78 95 131 147 151 152 155 156 158 170 175 179 181 182 183 185 187 189 192 197 202 209 215 220 225 227 228 229 232 235 237 238 239 241 243
104 91 121 276 298 308 318 327 154 136 145 171 136 114 130 156 154 144 140 138 144 154 156 171 176 181 185 188 190 192 193 196 200 206 212 218 224 230 233 236 238 239 240 242 245 246 248 250 250
123 99 62 290 281 290 310 336 66 138 160 132 127 146 191 179 142 126 118 123 138 152 162 170 171 173 178 189 197 198 201 204 208 214 221 226 232 237 239 241 245 249 249 250 251 252 254 256 256
89 78 225 236 241 280 315 342 348 106 116 125 138 167 165 135 136 130 126 130 155 170 175 174 172 170 170 182 203 204 209 211 214 220 227 231 233 241 250 252 250 252 255 257 257 257 259 260 261
94 145 229 225 220 266 303 292 254 105 121 137 78 78 123 137 148 155 162 170 178 185 187 186 180 175 173 195 202 205 210 212 214 212 224 226 221 230 244 253 257 259 260 261 261 259 260 261 257
162 204 243 259 245 251 278 282 214 140 196 207 182 152 147 151 160 170 178 180 184 184 188 193 192 184 186 198 198 206 212 214 219 219 220 224 229 236 245 247 259 263 266 265 265 264 256 249 246
222 251 247 272 282 285 259 269 216 198 227 204 160 151 154 164 174 180 180 179 172 178 193 192 193 194 198 202 209 210 214 217 222 224 220 219 231 238 241 243 243 243 247 250 253 253 252 250 248
251 271 276 268 287 266 249 246 237 253 275 107 126 144 162 169 172 174 170 168 170 186 193 194 191 199 203 208 219 220 223 228 231 228 224 221 230 239 240 243 243 244 241 242 246 248 252 254 254
266 277 285 285 277 253 210 254 221 274 112 118 134 153 161 162 164 164 167 173 181 190 193 192 192 199 202 211 219 228 228 232 237 237 232 224 228 236 238 242 241 241 239 240 240 244 249 255 260
294 311 321 316 319 291 208 330 313 317 114 120 131 137 136 146 155 168 176 179 186 189 189 191 193 197 205 214 222 228 231 232 237 241 239 233 231 235 237 243 245 243 238 237 240 241 241 250 256
22 23 339 312 335 320 140 259 329 354 112 114 126 132 130 131 141 152 160 168 174 170 175 191 201 199 208 214 223 230 234 236 244 246 244 240 237 235 237 243 247 243 238 234 234 231 232 242 251
25 22 322 314 337 357 91 34 338 13 98 103 116 127 128 122 114 122 133 139 142 147 155 172 184 192 206 214 222 232 240 243 248 252 253 251 248 241 235 241 244 240 237 233 231 224 217 231 241
317 342 325 318 331 40 65 46 14 29 88 104 109 115 118 114 105 106 115 120 121 132 145 157 174 192 196 203 218 237 249 253 253 254 258 260 257 254 244 245 247 240 237 233 225 222 215 218 220
198 201 286 295 326 59 62 44 16 25 70 105 116 119 118 106 88 94 119 125 128 141 155 167 177 188 168 163 192 227 253 261 265 266 274 280 279 275 263 262 257 242 235 234 226 219 220 221 207
178 139 276 305 357 67 68 25 351 10 11 131 140 137 126 113 109 129 153 158 168 176 182 185 187 186 186 185 193 211 244 270 272 291 302 301 301 295 289 279 272 259 247 244 235 222 223 222 196
139 162 190 261 2 33 49 357 344 352 23 55 73 104 133 161 179 199 206 210 204 204 201 198 202 200 204 198 114 360 349 329 321 316 314 314 312 305 298 292 285 275 258 251 244 231 228 231 217
211 246 201 130 67 334 33 309 299 330 349 13 171 181 203 210 212 217 221 224 223 223 215 210 209 211 215 174 168 200 247 274 273 288 294 304 308 309 307 303 296 286 273 261 251 239 234 231 230
184 52 66 61 109 47 25 86 292 338 307 256 225 219 222 227 225 229 230 232 237 232 221 218 212 220 222 203 199 212 245 257 282 295 299 303 305 306 308 306 301 291 277 267 261 253 241 232 229
102 68 50 46 63 57 327 92 285 268 247 250 231 231 234 234 237 245 253 256 256 245 225 215 210 223 221 215 215 217 244 270 292 301 306 306 303 301 306 308 302 293 283 272 265 256 249 239 233
66 70 24 5 12 270 282 211 252 276 279 251 237 238 250 257 260 269 271 265 256 241 230 222 217 226 222 220 227 228 236 249 263 280 292 301 306 304 307 308 303 296 287 279 270 261 253 241 235
123 129 149 201 233 281 323 238 253 350 351 350 349 353 358 348 335 318 304 289 276 257 240 227 226 233 227 225 230 230 233 238 251 262 272 281 286 292 297 301 298 293 290 284 275 267 258 247 239
140 148 159 136 174 270 287 294 317 4 11 15 21 24 17 6 1 352 346 340 324 308 284 256 243 247 245 240 239 241 240 240 249 259 266 273 279 288 298 301 300 298 295 289 282 272 265 252 240
114 139 101 116 155 252 286 302 316 345 355 8 19 21 14 13 16 14 10 8 3 355 350 348 318 282 273 263 253 252 247 246 248 253 262 272 283 289 300 304 304 303 301 295 286 278 265 251 237
41 83 95 109 155 170 250 268 49 4 349 0 11 14 12 13 15 14 13 12 12 13 10 2 351 336 317 295 278 265 257 251 250 251 258 268 279 290 297 303 306 305 304 299 290 286 268 238 211
254 140 139 132 256 190 207 249 57 52 9 9 7 6 7 10 11 11 11 12 14 12 7 2 352 340 321 304 288 273 262 252 248 250 255 261 274 285 295 303 307 307 306 304 294 292 277 169 141